User: anonymous   Login
Location: Mentone
(34.5413°N, 85.5351°W)
Time: 16:11:02
(UTC-06:00)
Language:

Centaur AC-72 - Orbit

View from above orbital plane
View from above orbital plane
View from above satellite
View from above satellite

Ground track
Ground track

The orbit data is extracted from the following two-line orbital elements,

1 21907U 92013B   16035.28659887 -.00000171  00000-0  00000+0 0  9991
2 21907  19.5630  67.6648 6954800 222.9077 185.2880  2.25611481197013
Epoch (UTC): 04 February 2016 06:52:42
Eccentricity: 0.6954800
inclination: 19.5630°
perigee height: 1100 km
apogee height: 35256 km
right ascension of ascending node: 67.6648°
argument of perigee: 222.9077°
revolutions per day: 2.25611481
mean anomaly at epoch: 185.2880°
orbit number at epoch: 19701

The dashed part of the orbit path shows where the satellite is in the earth's shadow,  

DLR